Santa Monica, CA

1:28 PM PDT on May 26, 2017 (GMT -0700)
Santa Monica Municipal

Weather History for KSMO - March, 2013

Change the Weather History Date:

Friday, March 15, 2013

  Actual Average Record
Temperature  
Mean Temperature 58 °F -  
Max Temperature 64 °F 69 °F 91 °F (2015)
Min Temperature 53 °F 49 °F 36 °F (1991)
Degree Days  
Heating Degree Days 6    
Growing Degree Days 8 (Base 50)    
Moisture  
Dew Point 53 °F    
Average Humidity 89    
Maximum Humidity 100    
Minimum Humidity 67    
Precipitation  
Precipitation 0.00 in - - ()
Sea Level Pressure  
Sea Level Pressure 30.00 in    
Wind  
Wind Speed 3 mph (SW)    
Max Wind Speed 10 mph    
Max Gust Speed -    
Visibility 2 miles    
Events Fog    
Averages and records for this station are not official NWS values.
T = Trace of Precipitation, MM = Missing Value Source: NWS Daily Summary

Daily Weather History Graph

Daily Weather History Graph

Search for Another Location

Airport or City:

Trip Planner

Search our weather history database for the weather conditions in past years. The results will help you decide how hot, cold, wet, or windy it might be!

Date:

Astronomy

Mar. 15, 2013 Rise Set
Actual Time 7:03 AM PDT 7:01 PM PDT
Civil Twilight 6:38 AM PDT 7:26 PM PDT
Nautical Twilight 6:09 AM PDT 7:55 PM PDT
Astronomical Twilight 5:40 AM PDT 8:25 PM PDT
Moon 9:09 AM PDT (3/15) 11:07 PM PDT (3/15)
Length of Visible Light 12h 47m
Length of Day
11h 58m
Waxing Crescent, 16% of the Moon is Illuminated
Mar 15
Waxing Crescent
Mar 19
First Quarter
Mar 27
Full
Apr 2
Last Quarter
Apr 10
New

Hourly Weather History & Observations

Time (PDT) Temp. Dew Point Humidity Pressure Visibility Wind Dir Wind Speed Gust Speed Precip Events Conditions
12:51 AM 54.0 °F 52.0 °F 93% 30.05 in 6.0 mi Calm Calm - N/A   Clear
1:51 AM 55.9 °F 53.1 °F 90% 30.04 in 8.0 mi Calm Calm - N/A   Scattered Clouds
2:02 AM 55.4 °F 53.6 °F 94% 30.04 in 6.0 mi SSW 3.5 mph - N/A   Mostly Cloudy
2:51 AM 55.0 °F 53.1 °F 93% 30.02 in 4.0 mi Calm Calm - N/A   Overcast
3:51 AM 55.0 °F 52.0 °F 89% 30.02 in 3.0 mi WSW 3.5 mph - N/A   Overcast
4:19 AM 55.4 °F 53.6 °F 94% 30.02 in 1.8 mi SW 5.8 mph - N/A   Overcast
4:24 AM 53.6 °F 53.6 °F 100% 30.02 in 0.8 mi SW 4.6 mph - N/A   Overcast
4:51 AM 54.0 °F 53.1 °F 97% 30.01 in 0.5 mi Calm Calm - N/A Fog Fog
5:48 AM 53.6 °F 53.6 °F 100% 30.00 in 1.5 mi East 3.5 mph - N/A   Overcast
5:49 AM 54.0 °F 53.1 °F 97% 30.00 in 1.8 mi East 3.5 mph - N/A   Overcast
5:57 AM 53.6 °F 53.6 °F 100% 30.01 in 2.5 mi Calm Calm - N/A   Overcast
6:51 AM 54.0 °F 52.0 °F 93% 30.02 in 1.8 mi Calm Calm - N/A   Overcast
7:01 AM 53.6 °F 53.6 °F 100% 30.01 in 2.0 mi Calm Calm - N/A   Overcast
7:51 AM 54.0 °F 53.1 °F 97% 30.02 in 1.8 mi Calm Calm - N/A   Overcast
8:51 AM 55.0 °F 52.0 °F 89% 30.03 in 2.0 mi Calm Calm - N/A   Overcast
9:51 AM 57.0 °F 53.1 °F 87% 30.04 in 2.5 mi SW 4.6 mph - N/A   Overcast
10:03 AM 59.0 °F 53.6 °F 82% 30.04 in 3.0 mi SSW 4.6 mph - N/A   Haze
10:20 AM 59.0 °F 53.6 °F 82% 30.04 in 3.0 mi South 4.6 mph - N/A   Haze
10:23 AM 60.8 °F 53.6 °F 77% 30.04 in 3.0 mi SSW 4.6 mph - N/A   Haze
10:51 AM 61.0 °F 53.1 °F 75% 30.04 in 4.0 mi Calm Calm - N/A   Haze
11:51 AM 64.0 °F 53.1 °F 67% 30.02 in 4.0 mi SSW 5.8 mph - N/A   Haze
12:51 PM 64.0 °F 53.1 °F 67% 30.00 in 3.0 mi WSW 6.9 mph - N/A   Haze
1:51 PM 63.0 °F 53.1 °F 70% 29.99 in 3.0 mi SW 6.9 mph - N/A   Haze
2:16 PM 60.8 °F 53.6 °F 77% 29.99 in 3.0 mi SW 10.4 mph - N/A   Haze
2:25 PM 59.0 °F 53.6 °F 82% 29.99 in 3.0 mi SW 10.4 mph - N/A   Haze
2:51 PM 60.1 °F 53.1 °F 78% 29.98 in 4.0 mi SW 10.4 mph - N/A   Haze
3:49 PM 55.4 °F 51.8 °F 88% 29.97 in 2.5 mi West 6.9 mph - N/A   Overcast
3:51 PM 55.9 °F 52.0 °F 87% 29.97 in 2.5 mi WSW 6.9 mph - N/A   Overcast
4:05 PM 57.2 °F 53.6 °F 88% 29.97 in 3.0 mi SW 6.9 mph - N/A   Overcast
4:51 PM 57.0 °F 52.0 °F 83% 29.96 in 1.0 mi SW 6.9 mph - N/A   Haze
5:47 PM 55.4 °F 51.8 °F 88% 29.95 in 2.0 mi SW 3.5 mph - N/A   Overcast
5:51 PM 55.9 °F 52.0 °F 87% 29.96 in 1.0 mi West 3.5 mph - N/A   Overcast
6:44 PM 53.6 °F 51.8 °F 94% 29.96 in 1.0 mi SW 6.9 mph - N/A Fog Fog
6:51 PM 54.0 °F 52.0 °F 93% 29.96 in 0.2 mi WSW 5.8 mph - N/A Fog Fog
7:51 PM 54.0 °F 52.0 °F 93% 29.97 in 0.2 mi SW 4.6 mph - N/A Fog Fog
8:51 PM 53.1 °F 52.0 °F 96% 29.97 in 0.2 mi Calm Calm - N/A Fog Fog
9:51 PM 53.1 °F 52.0 °F 96% 29.97 in 0.8 mi Calm Calm - N/A   Mist
10:51 PM 53.1 °F 52.0 °F 96% 29.98 in 1.5 mi Calm Calm - N/A   Overcast
11:04 PM 53.6 °F 51.8 °F 94% 29.98 in 2.5 mi Calm Calm - N/A   Overcast
11:51 PM 53.1 °F 52.0 °F 96% 29.97 in 2.5 mi Calm Calm - N/A   Overcast